Montgomery, AL

6:33 PM CST on February 24, 2017 (GMT -0600)
Montgomery Regional

Weather History for KMGM - June, 2013

Change the Weather History Date:

Saturday, June 1, 2013

  Actual Average Record
Temperature  
Mean Temperature 81 °F 76 °F  
Max Temperature 92 °F 88 °F 100 °F (2011)
Min Temperature 70 °F 65 °F 48 °F (1889)
Cooling Degree Days 16 11  
Month to date cooling degree days 16 11  
Year to date cooling degree days 375 350  
Since 1 June cooling degree days 16 11  
Growing Degree Days 30 (Base 50)    
Moisture  
Dew Point 69 °F    
Average Humidity 71    
Maximum Humidity 90    
Minimum Humidity 52    
Precipitation  
Precipitation T in 0.11 in 7.11 in (1946)
Month to date precipitation T 0.11  
Year to date precipitation 25.71 23.55  
Sea Level Pressure  
Sea Level Pressure 30.01 in    
Wind  
Wind Speed 6 mph (SSE)    
Max Wind Speed 15 mph    
Max Gust Speed 22 mph    
Visibility 10 miles    
Events      
T = Trace of Precipitation, MM = Missing Value Source: NWS Daily Summary

Daily Weather History Graph

Daily Weather History Graph

Search for Another Location

Airport or City:

Trip Planner

Search our weather history database for the weather conditions in past years. The results will help you decide how hot, cold, wet, or windy it might be!

Date:

Astronomy

Jun. 01, 2013 Rise Set
Actual Time 5:39 AM CDT 7:47 PM CDT
Civil Twilight 5:11 AM CDT 8:15 PM CDT
Nautical Twilight 4:37 AM CDT 8:49 PM CDT
Astronomical Twilight 4:00 AM CDT 9:26 PM CDT
Moon 1:13 AM CDT (6/1) 1:36 PM CDT (6/1)
Length of Visible Light 15h 04m
Length of Day
14h 08m
Last Quarter, 40% of the Moon is Illuminated
Jun 1
Last Quarter
Jun 8
New
Jun 16
First Quarter
Jun 23
Full
Jun 29
Last Quarter

Hourly Weather History & Observations

Time (CDT) Temp. Heat Index Dew Point Humidity Pressure Visibility Wind Dir Wind Speed Gust Speed Precip Events Conditions
12:53 AM 73.9 °F - 68.0 °F 82% 30.03 in 10.0 mi Calm Calm - N/A   Clear
1:53 AM 73.0 °F - 68.0 °F 84% 30.04 in 10.0 mi Calm Calm - N/A   Mostly Cloudy
2:53 AM 73.0 °F - 68.0 °F 84% 30.05 in 10.0 mi ESE 3.5 mph - N/A   Overcast
3:53 AM 71.1 °F - 66.9 °F 87% 30.04 in 10.0 mi East 3.5 mph - N/A   Scattered Clouds
4:53 AM 71.1 °F - 66.9 °F 87% 30.03 in 10.0 mi Calm Calm - N/A   Scattered Clouds
5:53 AM 70.0 °F - 66.9 °F 90% 30.04 in 10.0 mi East 4.6 mph - N/A   Clear
6:53 AM 73.9 °F - 68.0 °F 82% 30.04 in 10.0 mi ESE 4.6 mph - N/A   Scattered Clouds
7:53 AM 79.0 °F - 68.0 °F 69% 30.04 in 10.0 mi SE 6.9 mph - N/A   Mostly Cloudy
8:53 AM 82.0 °F 85.5 °F 69.1 °F 65% 30.04 in 10.0 mi South 11.5 mph - N/A   Overcast
9:53 AM 82.9 °F 87.0 °F 70.0 °F 65% 30.03 in 10.0 mi South 9.2 mph - N/A   Overcast
10:14 AM 84.2 °F 88.4 °F 69.8 °F 62% 30.04 in 10.0 mi SSE 9.2 mph - N/A   Overcast
10:53 AM 84.0 °F 87.8 °F 69.1 °F 61% 30.04 in 10.0 mi SSE 9.2 mph - N/A   Overcast
11:53 AM 87.1 °F 92.0 °F 70.0 °F 57% 30.03 in 10.0 mi ESE 8.1 mph - N/A   Overcast
12:53 PM 86.0 °F 90.7 °F 70.0 °F 59% 30.03 in 10.0 mi SE 5.8 mph - N/A   Mostly Cloudy
1:53 PM 89.1 °F 95.0 °F 71.1 °F 55% 30.01 in 10.0 mi South 6.9 mph - N/A   Mostly Cloudy
2:53 PM 89.1 °F 94.1 °F 70.0 °F 53% 29.99 in 10.0 mi SW 5.8 mph - N/A   Mostly Cloudy
3:53 PM 90.0 °F 94.5 °F 69.1 °F 50% 29.96 in 10.0 mi South 8.1 mph - N/A   Scattered Clouds
4:53 PM 84.9 °F 89.4 °F 70.0 °F 61% 29.96 in 10.0 mi South 6.9 mph - N/A   Mostly Cloudy
5:53 PM 86.0 °F 90.1 °F 69.1 °F 57% 29.94 in 10.0 mi South 8.1 mph - 0.00 in   Clear
6:53 PM 84.0 °F 89.0 °F 71.1 °F 65% 29.95 in 10.0 mi SSE 4.6 mph - N/A   Clear
7:53 PM 81.0 °F 84.4 °F 70.0 °F 69% 29.97 in 10.0 mi Calm Calm - N/A   Mostly Cloudy
8:53 PM 79.0 °F - 71.1 °F 77% 29.98 in 10.0 mi SSE 6.9 mph - N/A   Scattered Clouds
9:53 PM 77.0 °F - 71.1 °F 82% 29.99 in 10.0 mi South 3.5 mph - N/A   Clear
10:53 PM 77.0 °F - 71.1 °F 82% 29.99 in 10.0 mi SE 5.8 mph - N/A   Partly Cloudy
11:53 PM 77.0 °F - 71.1 °F 82% 29.98 in 10.0 mi South 4.6 mph - N/A   Clear